OCN2VG LGAV-EDDK

Flight info

Callsign OCN2VG
Flight time 1h 55m
Altitude 36000
Route KOR UL53 OLGAT DCT AIOSA DCT PEVAL DCT MOBDO DCT SOTOV P66 KPT L608 KOVAN T844 ASKIK T840 GULKO
Aircraft A320/M-SDE3FGHIRWY/LB1

Departure

Time 2026-04-21 18:23
Airport Athens Eleftherios Venizelos International Airport (LGAV)

Arrival

Time 2026-04-21 20:19
Airport Cologne Bonn Airport (EDDK)
Time Latitude Longitude Altitude Speed Heading
2026-04-21 17:43 37.93414 23.94659 285 ft 0 kts 298°
2026-04-21 17:45 37.93414 23.94658 285 ft 0 kts 298°
2026-04-21 18:10 37.93413 23.94661 285 ft 2 kts 299°
2026-04-21 18:11 37.93405 23.94679 290 ft 2 kts 303°
2026-04-21 18:11 37.93395 23.94696 286 ft 2 kts 311°
2026-04-21 18:11 37.93383 23.94711 286 ft 2 kts 323°
2026-04-21 18:11 37.93371 23.94725 287 ft 2 kts 358°
2026-04-21 18:12 37.93354 23.94723 286 ft 2 kts 17°
2026-04-21 18:12 37.93339 23.94716 291 ft 2 kts 26°
2026-04-21 18:12 37.93324 23.94706 293 ft 2 kts 33°
2026-04-21 18:12 37.93317 23.94700 289 ft 1 kts 38°
2026-04-21 18:17 37.93326 23.94710 292 ft 6 kts 44°
2026-04-21 18:17 37.93326 23.94783 290 ft 9 kts 108°
2026-04-21 18:17 37.93347 23.94847 285 ft 8 kts 38°
2026-04-21 18:18 37.93393 23.94892 284 ft 10 kts 47°
2026-04-21 18:18 37.93389 23.94984 284 ft 12 kts 102°
2026-04-21 18:18 37.93466 23.95104 283 ft 24 kts 37°
2026-04-21 18:18 37.93604 23.95235 281 ft 26 kts 37°
2026-04-21 18:19 37.93753 23.95377 280 ft 27 kts 37°
2026-04-21 18:19 37.93905 23.95522 278 ft 28 kts 37°
2026-04-21 18:19 37.94068 23.95677 277 ft 30 kts 37°
2026-04-21 18:19 37.94234 23.95835 275 ft 31 kts 37°
2026-04-21 18:20 37.94405 23.95997 275 ft 31 kts 37°
2026-04-21 18:20 37.94577 23.96160 273 ft 31 kts 37°
2026-04-21 18:20 37.94750 23.96326 269 ft 32 kts 37°
2026-04-21 18:20 37.94930 23.96497 268 ft 33 kts 37°
2026-04-21 18:21 37.95116 23.96673 266 ft 34 kts 37°
2026-04-21 18:21 37.95276 23.96825 264 ft 14 kts 37°
2026-04-21 18:21 37.95285 23.96922 263 ft 11 kts 122°
2026-04-21 18:21 37.95242 23.96995 263 ft 9 kts 126°
2026-04-21 18:22 37.95201 23.97022 264 ft 6 kts 190°
2026-04-21 18:22 37.95165 23.96994 265 ft 6 kts 216°
2026-04-21 18:22 37.95051 23.96886 267 ft 51 kts 217°
2026-04-21 18:22 37.94589 23.96449 269 ft 112 kts 217°
2026-04-21 18:23 37.93828 23.95727 278 ft 158 kts 217°
2026-04-21 18:23 37.92872 23.94813 571 ft 176 kts 216°
2026-04-21 18:23 37.91835 23.94019 1203 ft 177 kts 209°
2026-04-21 18:23 37.90727 23.93293 1717 ft 186 kts 208°
2026-04-21 18:24 37.89511 23.92503 1965 ft 207 kts 211°
2026-04-21 18:24 37.88439 23.91192 2243 ft 227 kts 243°
2026-04-21 18:24 37.88132 23.89222 2832 ft 234 kts 272°
2026-04-21 18:24 37.88242 23.87136 3450 ft 245 kts 273°
2026-04-21 18:25 37.88367 23.84918 4024 ft 258 kts 274°
2026-04-21 18:25 37.88495 23.82637 4872 ft 260 kts 274°
2026-04-21 18:25 37.88623 23.80352 5705 ft 261 kts 274°
2026-04-21 18:25 37.88752 23.78039 6507 ft 264 kts 275°
2026-04-21 18:26 37.88882 23.75700 7309 ft 267 kts 274°
2026-04-21 18:26 37.89008 23.73365 8112 ft 268 kts 274°
2026-04-21 18:26 37.89135 23.70999 8926 ft 270 kts 274°
2026-04-21 18:26 37.89263 23.68621 9709 ft 272 kts 274°
2026-04-21 18:27 37.89391 23.66228 10252 ft 283 kts 274°
2026-04-21 18:27 37.89528 23.63644 10432 ft 306 kts 274°
2026-04-21 18:27 37.89674 23.60881 10827 ft 319 kts 274°
2026-04-21 18:27 37.89825 23.58065 11477 ft 323 kts 274°
2026-04-21 18:28 37.89975 23.55224 12179 ft 325 kts 274°
2026-04-21 18:28 37.90124 23.52355 12880 ft 327 kts 274°
2026-04-21 18:28 37.90274 23.49476 13573 ft 329 kts 274°
2026-04-21 18:28 37.90425 23.46567 14189 ft 331 kts 274°
2026-04-21 18:29 37.90576 23.43651 14788 ft 334 kts 274°
2026-04-21 18:29 37.90728 23.40706 15396 ft 336 kts 274°
2026-04-21 18:29 37.90880 23.37743 16001 ft 338 kts 274°
2026-04-21 18:29 37.91030 23.34770 16595 ft 340 kts 274°
2026-04-21 18:30 37.91179 23.31763 17181 ft 342 kts 274°
2026-04-21 18:30 37.91330 23.28742 17759 ft 344 kts 274°
2026-04-21 18:30 37.91480 23.25712 18306 ft 347 kts 274°
2026-04-21 18:30 37.91631 23.22650 18794 ft 349 kts 274°
2026-04-21 18:31 37.91783 23.19575 19267 ft 352 kts 274°
2026-04-21 18:31 37.91937 23.16465 19739 ft 354 kts 274°
2026-04-21 18:31 37.92092 23.13349 20200 ft 357 kts 274°
2026-04-21 18:31 37.92247 23.10208 20649 ft 359 kts 274°
2026-04-21 18:32 37.92405 23.07044 21101 ft 361 kts 274°
2026-04-21 18:32 37.92549 23.04097 21521 ft 364 kts 274°
2026-04-21 18:32 37.92700 23.00901 21934 ft 367 kts 274°
2026-04-21 18:32 37.92862 22.97663 22367 ft 369 kts 276°
2026-04-21 18:33 37.93343 22.94519 22790 ft 371 kts 287°
2026-04-21 18:33 37.94326 22.91461 23210 ft 374 kts 297°
2026-04-21 18:33 37.95745 22.88669 23616 ft 377 kts 303°
2026-04-21 18:33 37.97241 22.85973 23953 ft 380 kts 303°
2026-04-21 18:34 37.98753 22.83237 24305 ft 381 kts 303°
2026-04-21 18:34 38.00283 22.80462 24651 ft 383 kts 303°
2026-04-21 18:34 38.01807 22.77693 24996 ft 385 kts 303°
2026-04-21 18:34 38.03344 22.74889 25343 ft 386 kts 303°
2026-04-21 18:35 38.04373 22.73008 25577 ft 387 kts 303°
2026-04-21 18:35 38.06416 22.69271 26021 ft 389 kts 303°
2026-04-21 18:35 38.07962 22.66446 26355 ft 391 kts 303°
2026-04-21 18:35 38.09521 22.63597 26667 ft 393 kts 303°
2026-04-21 18:36 38.11089 22.60736 26993 ft 395 kts 303°
2026-04-21 18:36 38.12661 22.57868 27321 ft 396 kts 303°
2026-04-21 18:36 38.14240 22.54988 27634 ft 398 kts 303°
2026-04-21 18:36 38.15826 22.52087 27947 ft 400 kts 303°
2026-04-21 18:37 38.17413 22.49176 28247 ft 402 kts 303°
2026-04-21 18:37 38.19006 22.46259 28551 ft 403 kts 303°
2026-04-21 18:37 38.20604 22.43329 28889 ft 404 kts 303°
2026-04-21 18:37 38.22188 22.40419 29186 ft 405 kts 303°
2026-04-21 18:38 38.23814 22.37428 29474 ft 407 kts 303°
2026-04-21 18:38 38.25428 22.34455 29748 ft 408 kts 303°
2026-04-21 18:38 38.27026 22.31508 30024 ft 410 kts 303°
2026-04-21 18:38 38.28646 22.28521 30243 ft 411 kts 303°
2026-04-21 18:39 38.30274 22.25511 30478 ft 412 kts 303°
2026-04-21 18:39 38.31896 22.22508 30782 ft 411 kts 303°
2026-04-21 18:39 38.33515 22.19505 31135 ft 410 kts 303°
2026-04-21 18:39 38.35128 22.16513 31461 ft 408 kts 303°
2026-04-21 18:40 38.36731 22.13538 31774 ft 407 kts 303°
2026-04-21 18:40 38.38337 22.10556 32135 ft 406 kts 303°
2026-04-21 18:40 38.39392 22.08595 32372 ft 405 kts 303°
2026-04-21 18:40 38.41517 22.04640 32794 ft 403 kts 302°
2026-04-21 18:41 38.43102 22.01690 33104 ft 403 kts 302°
2026-04-21 18:41 38.44686 21.98743 33428 ft 401 kts 302°
2026-04-21 18:41 38.46263 21.95811 33745 ft 400 kts 302°
2026-04-21 18:41 38.47835 21.92883 34054 ft 399 kts 302°
2026-04-21 18:42 38.49384 21.89994 34295 ft 399 kts 302°
2026-04-21 18:42 38.50953 21.87065 34544 ft 398 kts 302°
2026-04-21 18:42 38.52518 21.84144 34695 ft 398 kts 302°
2026-04-21 18:42 38.54078 21.81220 34930 ft 398 kts 302°
2026-04-21 18:43 38.55634 21.78298 35118 ft 398 kts 302°
2026-04-21 18:43 38.57193 21.75370 35255 ft 400 kts 302°
2026-04-21 18:43 38.58762 21.72423 35436 ft 400 kts 302°
2026-04-21 18:43 38.60327 21.69479 35626 ft 400 kts 302°
2026-04-21 18:44 38.61890 21.66535 35822 ft 400 kts 302°
2026-04-21 18:44 38.63452 21.63587 35975 ft 400 kts 302°
2026-04-21 18:44 38.65009 21.60643 36017 ft 399 kts 302°
2026-04-21 18:45 38.68119 21.54765 36015 ft 399 kts 302°
2026-04-21 18:45 38.71225 21.48877 36013 ft 398 kts 302°
2026-04-21 18:46 38.74297 21.43054 36015 ft 398 kts 302°
2026-04-21 18:46 38.77396 21.37177 36012 ft 398 kts 302°
2026-04-21 18:47 38.80491 21.31294 36015 ft 398 kts 302°
2026-04-21 18:47 38.83583 21.25403 36012 ft 398 kts 302°
2026-04-21 18:48 38.86675 21.19505 36014 ft 398 kts 302°
2026-04-21 18:48 38.97021 20.99683 36020 ft 398 kts 302°
2026-04-21 18:49 39.09217 20.76158 36014 ft 397 kts 302°
2026-04-21 18:49 39.19426 20.56307 36025 ft 396 kts 301°
2026-04-21 18:50 39.33480 20.28779 36029 ft 395 kts 301°
2026-04-21 18:50 39.45772 20.05374 35962 ft 395 kts 313°
2026-04-21 18:51 39.61190 19.85100 35967 ft 395 kts 311°
2026-04-21 18:51 39.76548 19.64670 35986 ft 394 kts 311°
2026-04-21 18:52 39.91820 19.44202 35998 ft 394 kts 311°
2026-04-21 18:52 40.07083 19.23640 35966 ft 393 kts 311°
2026-04-21 18:53 40.22238 19.03049 35972 ft 392 kts 311°
2026-04-21 18:53 40.39343 18.85011 35958 ft 396 kts 318°
2026-04-21 18:54 40.56795 18.67271 35965 ft 396 kts 319°
2026-04-21 18:54 40.74177 18.49505 35950 ft 395 kts 319°
2026-04-21 18:55 40.88587 18.34682 35959 ft 395 kts 318°
2026-04-21 18:55 41.08707 18.13831 35979 ft 395 kts 318°
2026-04-21 18:56 41.26002 17.95791 35995 ft 395 kts 318°
2026-04-21 18:56 41.43211 17.77706 35980 ft 394 kts 318°
2026-04-21 18:57 41.60412 17.59479 35977 ft 395 kts 318°
2026-04-21 18:57 41.77624 17.41153 35984 ft 393 kts 317°
2026-04-21 18:58 41.94688 17.22809 35994 ft 393 kts 317°
2026-04-21 18:58 42.08736 17.07340 35983 ft 392 kts 316°
2026-04-21 18:59 42.28310 16.85653 35982 ft 391 kts 316°
2026-04-21 18:59 42.45075 16.66940 35986 ft 391 kts 316°
2026-04-21 19:00 42.59106 16.51156 35984 ft 391 kts 316°
2026-04-21 19:00 42.75756 16.32320 36003 ft 391 kts 316°
2026-04-21 19:01 42.92435 16.13307 36014 ft 390 kts 316°
2026-04-21 19:01 43.09034 15.94246 35996 ft 389 kts 316°
2026-04-21 19:02 43.25532 15.75173 36001 ft 387 kts 316°
2026-04-21 19:02 43.41960 15.56014 36001 ft 387 kts 316°
2026-04-21 19:03 43.58315 15.36818 36022 ft 385 kts 315°
2026-04-21 19:03 43.74599 15.17558 36006 ft 385 kts 315°
2026-04-21 19:04 43.90869 14.98178 36011 ft 385 kts 315°
2026-04-21 19:04 44.07089 14.78714 36021 ft 385 kts 315°
2026-04-21 19:05 44.23153 14.59266 36011 ft 385 kts 315°
2026-04-21 19:05 44.31328 14.49335 36019 ft 385 kts 315°
2026-04-21 19:06 44.35369 14.44404 36019 ft 385 kts 315°
2026-04-21 19:06 44.39405 14.39472 36016 ft 385 kts 315°
2026-04-21 19:07 44.43436 14.34533 36018 ft 385 kts 315°
2026-04-21 19:07 44.47468 14.29584 36017 ft 385 kts 315°
2026-04-21 19:08 44.51491 14.24641 36046 ft 385 kts 315°
2026-04-21 19:08 44.55508 14.19690 36038 ft 384 kts 315°
2026-04-21 19:09 44.59496 14.14774 36036 ft 384 kts 315°
2026-04-21 19:09 44.63520 14.09811 36032 ft 384 kts 315°
2026-04-21 19:10 44.67531 14.04852 36044 ft 384 kts 315°
2026-04-21 19:10 44.71540 13.99880 36071 ft 384 kts 314°
2026-04-21 19:11 44.75535 13.94896 36069 ft 384 kts 314°
2026-04-21 19:11 44.79527 13.89913 36070 ft 384 kts 314°
2026-04-21 19:12 44.83527 13.84929 36070 ft 383 kts 314°
2026-04-21 19:12 44.87519 13.79944 36063 ft 383 kts 314°
2026-04-21 19:13 44.91506 13.74957 36061 ft 383 kts 314°
2026-04-21 19:13 44.95478 13.69970 36079 ft 382 kts 314°
2026-04-21 19:14 44.99420 13.65005 36063 ft 382 kts 314°
2026-04-21 19:14 45.03387 13.60005 36043 ft 382 kts 314°
2026-04-21 19:15 45.07354 13.54999 36039 ft 382 kts 314°
2026-04-21 19:15 45.11321 13.49983 36031 ft 382 kts 314°
2026-04-21 19:16 45.15320 13.45007 36034 ft 383 kts 316°
2026-04-21 19:16 45.19408 13.40146 36057 ft 383 kts 316°
2026-04-21 19:17 45.25540 13.32845 36036 ft 384 kts 316°
2026-04-21 19:17 45.29602 13.27955 36035 ft 385 kts 316°
2026-04-21 19:18 45.33688 13.23031 36030 ft 385 kts 316°
2026-04-21 19:18 45.37768 13.18096 36040 ft 385 kts 316°
2026-04-21 19:19 45.41841 13.13159 36080 ft 384 kts 316°
2026-04-21 19:19 45.45911 13.08220 36058 ft 385 kts 316°
2026-04-21 19:20 45.49996 13.03250 36047 ft 386 kts 316°
2026-04-21 19:20 45.54078 12.98284 36052 ft 386 kts 316°
2026-04-21 19:21 45.58166 12.93303 36054 ft 386 kts 316°
2026-04-21 19:21 45.62248 12.88301 36068 ft 385 kts 316°
2026-04-21 19:22 45.66288 12.83350 36084 ft 385 kts 316°
2026-04-21 19:22 45.70356 12.78351 36051 ft 386 kts 316°
2026-04-21 19:23 45.74441 12.73334 36039 ft 387 kts 316°
2026-04-21 19:23 45.78528 12.68302 36082 ft 387 kts 316°
2026-04-21 19:24 45.82609 12.63252 36081 ft 387 kts 316°
2026-04-21 19:24 45.86671 12.58209 36102 ft 386 kts 316°
2026-04-21 19:25 45.90724 12.53186 36110 ft 387 kts 316°
2026-04-21 19:25 45.94833 12.48081 36102 ft 388 kts 316°
2026-04-21 19:26 45.98888 12.43026 36094 ft 388 kts 316°
2026-04-21 19:26 46.02975 12.37936 36091 ft 389 kts 316°
2026-04-21 19:27 46.07058 12.32832 36078 ft 389 kts 316°
2026-04-21 19:27 46.11130 12.27730 36075 ft 388 kts 316°
2026-04-21 19:28 46.15209 12.22608 36081 ft 388 kts 316°
2026-04-21 19:28 46.19265 12.17498 36071 ft 387 kts 316°
2026-04-21 19:29 46.23324 12.12375 36062 ft 387 kts 316°
2026-04-21 19:29 46.27382 12.07249 36070 ft 388 kts 316°
2026-04-21 19:30 46.31444 12.02120 36052 ft 387 kts 316°
2026-04-21 19:30 46.35499 11.96985 36077 ft 387 kts 316°
2026-04-21 19:31 46.39542 11.91844 36060 ft 388 kts 316°
2026-04-21 19:31 46.43579 11.86700 36052 ft 388 kts 316°
2026-04-21 19:32 46.47634 11.81517 36042 ft 389 kts 316°
2026-04-21 19:32 46.51707 11.76302 36039 ft 389 kts 316°
2026-04-21 19:33 46.55773 11.71102 36036 ft 390 kts 316°
2026-04-21 19:33 46.59836 11.65888 36042 ft 390 kts 316°
2026-04-21 19:34 46.63906 11.60652 36035 ft 391 kts 316°
2026-04-21 19:34 46.67986 11.55392 36025 ft 392 kts 316°
2026-04-21 19:35 46.74107 11.47475 36041 ft 393 kts 316°
2026-04-21 19:36 46.78160 11.42222 36035 ft 393 kts 316°
2026-04-21 19:36 46.82250 11.36915 36079 ft 393 kts 316°
2026-04-21 19:37 46.86345 11.31578 36058 ft 394 kts 316°
2026-04-21 19:37 46.90427 11.26247 36052 ft 396 kts 316°
2026-04-21 19:38 46.94584 11.20959 36070 ft 397 kts 322°
2026-04-21 19:38 46.98459 11.17328 36082 ft 399 kts 325°
2026-04-21 19:39 47.03965 11.12263 36074 ft 399 kts 325°
2026-04-21 19:39 47.08665 11.07901 36104 ft 399 kts 322°
2026-04-21 19:40 47.13011 11.02810 36114 ft 398 kts 319°
2026-04-21 19:40 47.17299 10.97676 36108 ft 399 kts 319°
2026-04-21 19:41 47.21612 10.92506 36121 ft 399 kts 319°
2026-04-21 19:41 47.25890 10.87371 36119 ft 399 kts 319°
2026-04-21 19:42 47.36572 10.74521 36126 ft 401 kts 319°
2026-04-21 19:42 47.54836 10.55464 36154 ft 403 kts 323°
2026-04-21 19:43 47.73254 10.36373 36138 ft 405 kts 323°
2026-04-21 19:43 47.90736 10.15256 36155 ft 406 kts 320°
2026-04-21 19:44 47.97035 10.07576 36156 ft 406 kts 320°
2026-04-21 19:44 48.01405 10.02210 36173 ft 406 kts 320°
2026-04-21 19:45 48.05766 9.96819 36149 ft 407 kts 319°
2026-04-21 19:45 48.10138 9.91412 36148 ft 408 kts 320°
2026-04-21 19:46 48.14513 9.86005 36149 ft 409 kts 320°
2026-04-21 19:46 48.26730 9.70798 36152 ft 409 kts 320°
2026-04-21 19:47 48.44076 9.48851 36174 ft 410 kts 319°
2026-04-21 19:47 48.58624 9.30105 36189 ft 410 kts 319°
2026-04-21 19:47 48.68457 9.21623 36187 ft 411 kts 335°
2026-04-21 19:48 48.78928 9.14650 36168 ft 412 kts 334°
2026-04-21 19:48 49.00408 9.02350 36166 ft 414 kts 340°
2026-04-21 19:49 49.16575 8.94143 36184 ft 415 kts 340°
2026-04-21 19:49 49.22056 8.91367 36182 ft 416 kts 340°
2026-04-21 19:50 49.27546 8.88560 36177 ft 416 kts 340°
2026-04-21 19:50 49.33038 8.85724 36199 ft 416 kts 339°
2026-04-21 19:51 49.38409 8.82490 36212 ft 415 kts 336°
2026-04-21 19:51 49.43731 8.79018 36219 ft 416 kts 336°
2026-04-21 19:52 49.49077 8.75573 36216 ft 417 kts 337°
2026-04-21 19:52 49.54445 8.72186 36229 ft 417 kts 337°
2026-04-21 19:53 49.59824 8.68809 36183 ft 419 kts 337°
2026-04-21 19:53 49.62529 8.67108 35689 ft 420 kts 337°
2026-04-21 19:53 49.65229 8.65408 35229 ft 417 kts 338°
2026-04-21 19:53 49.67899 8.63718 34749 ft 414 kts 338°
2026-04-21 19:54 49.70548 8.62036 34286 ft 411 kts 338°
2026-04-21 19:54 49.73188 8.60362 33747 ft 408 kts 338°
2026-04-21 19:54 49.75806 8.58700 33203 ft 404 kts 338°
2026-04-21 19:54 49.78396 8.57054 32680 ft 402 kts 338°
2026-04-21 19:55 49.80967 8.55415 32150 ft 399 kts 338°
2026-04-21 19:55 49.83527 8.53777 31651 ft 396 kts 338°
2026-04-21 19:55 49.86059 8.52155 31152 ft 393 kts 339°
2026-04-21 19:55 49.88574 8.50544 30661 ft 390 kts 340°
2026-04-21 19:56 49.91082 8.48936 30148 ft 388 kts 340°
2026-04-21 19:56 49.93568 8.47340 29605 ft 386 kts 340°
2026-04-21 19:56 49.96014 8.45767 29044 ft 384 kts 340°
2026-04-21 19:56 49.98470 8.44186 28482 ft 381 kts 340°
2026-04-21 19:57 50.00921 8.42609 27905 ft 379 kts 340°
2026-04-21 19:57 50.03357 8.41047 27372 ft 377 kts 340°
2026-04-21 19:57 50.05773 8.39500 26843 ft 375 kts 340°
2026-04-21 19:57 50.08175 8.37958 26329 ft 373 kts 340°
2026-04-21 19:58 50.10571 8.36414 25819 ft 371 kts 340°
2026-04-21 19:58 50.12950 8.34870 25309 ft 369 kts 341°
2026-04-21 19:58 50.15313 8.33331 24812 ft 367 kts 341°
2026-04-21 19:58 50.17664 8.31802 24334 ft 366 kts 341°
2026-04-21 19:59 50.20005 8.30288 23862 ft 364 kts 341°
2026-04-21 19:59 50.22344 8.28777 23294 ft 362 kts 341°
2026-04-21 19:59 50.24650 8.27284 22730 ft 358 kts 341°
2026-04-21 19:59 50.26955 8.25788 22173 ft 358 kts 341°
2026-04-21 20:00 50.29250 8.24296 21648 ft 358 kts 341°
2026-04-21 20:00 50.31546 8.22800 21107 ft 357 kts 340°
2026-04-21 20:00 50.33835 8.21309 20596 ft 357 kts 340°
2026-04-21 20:00 50.36127 8.19814 20074 ft 356 kts 341°
2026-04-21 20:01 50.38385 8.18336 19580 ft 355 kts 340°
2026-04-21 20:01 50.40668 8.16834 19084 ft 355 kts 340°
2026-04-21 20:01 50.42937 8.15344 18612 ft 354 kts 340°
2026-04-21 20:01 50.45243 8.13830 18060 ft 354 kts 340°
2026-04-21 20:02 50.47479 8.12358 17507 ft 353 kts 340°
2026-04-21 20:02 50.49742 8.10873 16968 ft 353 kts 340°
2026-04-21 20:02 50.52010 8.09384 16434 ft 352 kts 340°
2026-04-21 20:02 50.54270 8.07904 15924 ft 352 kts 340°
2026-04-21 20:03 50.56525 8.06420 15409 ft 351 kts 340°
2026-04-21 20:03 50.58768 8.04937 14890 ft 344 kts 340°
2026-04-21 20:03 50.60926 8.03507 14391 ft 331 kts 340°
2026-04-21 20:03 50.63008 8.02123 13887 ft 320 kts 340°
2026-04-21 20:04 50.65034 8.00776 13340 ft 311 kts 340°
2026-04-21 20:04 50.66998 7.99472 12798 ft 303 kts 340°
2026-04-21 20:04 50.68926 7.98173 12278 ft 300 kts 337°
2026-04-21 20:04 50.70622 7.96261 11771 ft 306 kts 316°
2026-04-21 20:05 50.71889 7.93527 11334 ft 309 kts 306°
2026-04-21 20:05 50.73060 7.90718 11254 ft 306 kts 306°
2026-04-21 20:05 50.74221 7.87894 11269 ft 306 kts 306°
2026-04-21 20:05 50.75374 7.85074 11269 ft 306 kts 306°
2026-04-21 20:06 50.76529 7.82243 11280 ft 306 kts 306°
2026-04-21 20:06 50.77682 7.79424 11278 ft 306 kts 306°
2026-04-21 20:06 50.78840 7.76598 11276 ft 306 kts 306°
2026-04-21 20:06 50.79998 7.73780 11275 ft 306 kts 306°
2026-04-21 20:07 50.81143 7.70990 11278 ft 306 kts 306°
2026-04-21 20:07 50.82317 7.68123 11283 ft 306 kts 306°
2026-04-21 20:07 50.83457 7.65335 11278 ft 306 kts 306°
2026-04-21 20:07 50.84618 7.62497 11276 ft 307 kts 306°
2026-04-21 20:08 50.85774 7.59661 11278 ft 307 kts 306°
2026-04-21 20:08 50.86927 7.56824 11279 ft 307 kts 306°
2026-04-21 20:08 50.88083 7.53977 11264 ft 306 kts 306°
2026-04-21 20:08 50.89234 7.51145 10905 ft 305 kts 306°
2026-04-21 20:09 50.90382 7.48325 10459 ft 307 kts 306°
2026-04-21 20:09 50.91548 7.45463 10028 ft 308 kts 306°
2026-04-21 20:09 50.92703 7.42621 9616 ft 306 kts 306°
2026-04-21 20:09 50.93846 7.39796 9242 ft 304 kts 305°
2026-04-21 20:10 50.94980 7.36984 8858 ft 301 kts 305°
2026-04-21 20:10 50.96089 7.34231 8481 ft 298 kts 305°
2026-04-21 20:10 50.97197 7.31478 8110 ft 295 kts 304°
2026-04-21 20:10 50.98296 7.28750 7730 ft 292 kts 304°
2026-04-21 20:11 50.99389 7.26036 7364 ft 290 kts 304°
2026-04-21 20:11 51.00472 7.23346 6999 ft 287 kts 304°
2026-04-21 20:11 51.01546 7.20676 6613 ft 285 kts 304°
2026-04-21 20:11 51.02610 7.18030 6230 ft 282 kts 304°
2026-04-21 20:12 51.03648 7.15436 5954 ft 275 kts 304°
2026-04-21 20:12 51.04670 7.12878 5664 ft 269 kts 304°
2026-04-21 20:12 51.05639 7.10449 5522 ft 258 kts 303°
2026-04-21 20:12 51.06605 7.08034 5204 ft 255 kts 303°
2026-04-21 20:13 51.07534 7.05675 4843 ft 255 kts 299°
2026-04-21 20:13 51.07983 7.02991 4478 ft 254 kts 268°
2026-04-21 20:13 51.07532 7.00323 4089 ft 250 kts 236°
2026-04-21 20:13 51.06461 6.98159 3677 ft 250 kts 225°
2026-04-21 20:14 51.05302 6.96172 3547 ft 239 kts 222°
2026-04-21 20:14 51.03977 6.94782 3410 ft 220 kts 191°
2026-04-21 20:14 51.02521 6.94459 3277 ft 205 kts 172°
2026-04-21 20:14 51.01166 6.94793 3140 ft 192 kts 156°
2026-04-21 20:15 50.99977 6.95668 3055 ft 186 kts 141°
2026-04-21 20:15 50.98994 6.96961 3008 ft 183 kts 132°
2026-04-21 20:15 50.98054 6.98335 2917 ft 183 kts 132°
2026-04-21 20:15 50.97114 6.99708 2712 ft 183 kts 132°
2026-04-21 20:16 50.96180 7.01070 2461 ft 183 kts 132°
2026-04-21 20:16 50.95246 7.02432 2206 ft 182 kts 132°
2026-04-21 20:16 50.94318 7.03784 1939 ft 178 kts 132°
2026-04-21 20:16 50.93440 7.05058 1729 ft 164 kts 131°
2026-04-21 20:17 50.92645 7.06212 1510 ft 146 kts 132°
2026-04-21 20:17 50.91924 7.07263 1310 ft 138 kts 132°
2026-04-21 20:17 50.91217 7.08294 1112 ft 139 kts 134°
2026-04-21 20:17 50.90506 7.09329 935 ft 139 kts 134°
2026-04-21 20:18 50.90033 7.10017 811 ft 139 kts 134°
2026-04-21 20:18 50.89076 7.11406 566 ft 139 kts 134°
2026-04-21 20:18 50.88370 7.12446 380 ft 139 kts 133°
2026-04-21 20:18 50.87673 7.13455 240 ft 127 kts 135°
2026-04-21 20:19 50.87146 7.14219 249 ft 78 kts 137°
2026-04-21 20:19 50.86863 7.14629 262 ft 41 kts 136°
2026-04-21 20:19 50.86667 7.14912 272 ft 36 kts 137°
2026-04-21 20:19 50.86495 7.15159 280 ft 30 kts 141°
2026-04-21 20:20 50.86315 7.15302 291 ft 28 kts 165°
2026-04-21 20:20 50.86179 7.15351 293 ft 14 kts 167°
2026-04-21 20:20 50.86093 7.15339 290 ft 11 kts 208°
2026-04-21 20:20 50.86044 7.15228 294 ft 17 kts 258°
2026-04-21 20:21 50.86091 7.15068 288 ft 18 kts 316°
2026-04-21 20:21 50.86190 7.14923 284 ft 22 kts 317°
2026-04-21 20:21 50.86314 7.14744 277 ft 26 kts 318°
2026-04-21 20:21 50.86420 7.14592 271 ft 18 kts 317°
2026-04-21 20:22 50.86507 7.14465 266 ft 12 kts 317°
2026-04-21 20:22 50.86624 7.14294 261 ft 17 kts 317°
2026-04-21 20:22 50.86715 7.14161 257 ft 17 kts 317°
2026-04-21 20:23 50.86821 7.14067 255 ft 18 kts 319°
2026-04-21 20:23 50.86925 7.13921 250 ft 23 kts 317°
2026-04-21 20:23 50.87058 7.13730 241 ft 28 kts 318°
2026-04-21 20:23 50.87187 7.13542 237 ft 24 kts 317°
2026-04-21 20:24 50.87318 7.13352 232 ft 27 kts 317°
2026-04-21 20:24 50.87450 7.13160 232 ft 25 kts 317°
2026-04-21 20:24 50.87584 7.12969 232 ft 26 kts 317°
2026-04-21 20:24 50.87704 7.12794 232 ft 20 kts 317°
2026-04-21 20:25 50.87798 7.12657 232 ft 15 kts 318°
2026-04-21 20:25 50.87894 7.12616 232 ft 15 kts 10°
2026-04-21 20:25 50.87995 7.12580 234 ft 14 kts 316°
2026-04-21 20:25 50.88043 7.12457 234 ft 13 kts 300°
2026-04-21 20:26 50.88085 7.12351 234 ft 10 kts 305°
2026-04-21 20:26 50.88124 7.12267 232 ft 9 kts 306°
2026-04-21 20:26 50.88137 7.12208 233 ft 5 kts 245°
2026-04-21 20:26 50.88114 7.12179 242 ft 4 kts 217°
2026-04-21 20:27 50.88095 7.12157 233 ft 3 kts 216°
2026-04-21 20:27 50.88082 7.12141 232 ft 2 kts 216°
2026-04-21 20:27 50.88076 7.12135 232 ft 0 kts 216°